Weather History for Jacksonville NAS, FL

Change the Weather History Date:

Saturday, October 22, 2011

  Actual Average Record
Temperature  
Mean Temperature 61 °F -  
Max Temperature 72 °F 76 °F 91 °F (2006)
Min Temperature 51 °F 61 °F 51 °F (2011)
Degree Days  
Heating Degree Days 4    
Growing Degree Days 11 (Base 50)    
Moisture  
Dew Point 41 °F    
Average Humidity 50    
Maximum Humidity 66    
Minimum Humidity 27    
Precipitation  
Precipitation 0.00 in - - ()
Sea Level Pressure  
Sea Level Pressure 30.07 in    
Wind  
Wind Speed 5 mph (North)    
Max Wind Speed 12 mph    
Max Gust Speed -    
Visibility 10 miles    
Events      
Averages and records for this station are not official NWS values.
T = Trace of Precipitation, MM = Missing Value Source: NWS Daily Summary

Daily Weather History Graph

Daily Weather History Graph

Search for Another Location

Airport:

Trip Planner

Search our weather history database for the weather conditions in past years. The results will help you decide how hot, cold, wet, or windy it might be!

Date:

Astronomy

Oct. 22, 2011 Rise Set
Actual Time 7:33 AM EDT 6:48 PM EDT
Civil Twilight 7:08 AM EDT 7:12 PM EDT
Nautical Twilight 6:40 AM EDT 7:40 PM EDT
Astronomical Twilight 6:13 AM EDT 8:08 PM EDT
Moon 2:49 AM EDT (10/22) 3:48 PM EDT (10/22)
Length of Visible Light 12h 04m
Length of Day
11h 15m
Waning Crescent, 24% of the Moon is Illuminated
Oct 22
Waning Crescent
Oct 26
New
Nov 2
First Quarter
Nov 10
Full
Nov 18
Last Quarter

Hourly Weather History & Observations

Time (EDT) Temp. Dew Point Humidity Pressure Visibility Wind Dir Wind Speed Gust Speed Precip Events Conditions
12:53 AM 57.0 °F 41.0 °F 55% 30.09 in 10.0 mi NNW 5.8 mph - N/A   Clear
1:53 AM 57.0 °F 39.9 °F 53% 30.09 in 10.0 mi NW 6.9 mph - N/A   Clear
2:53 AM 55.0 °F 39.0 °F 55% 30.08 in 10.0 mi NW 5.8 mph - N/A   Clear
3:53 AM 53.1 °F 41.0 °F 64% 30.07 in 10.0 mi Calm Calm - N/A   Clear
4:53 AM 52.0 °F 41.0 °F 66% 30.07 in 10.0 mi Calm Calm - N/A   Clear
5:53 AM 52.0 °F 39.0 °F 61% 30.07 in 10.0 mi NW 5.8 mph - N/A   Clear
6:53 AM 51.1 °F 39.9 °F 66% 30.08 in 10.0 mi WNW 3.5 mph - N/A   Clear
7:53 AM 51.1 °F 39.9 °F 66% 30.09 in 10.0 mi NW 4.6 mph - N/A   Partly Cloudy
8:53 AM 55.0 °F 42.1 °F 62% 30.10 in 10.0 mi NNW 6.9 mph - N/A   Partly Cloudy
9:53 AM 59.0 °F 42.1 °F 53% 30.12 in 10.0 mi North 6.9 mph - N/A   Partly Cloudy
10:53 AM 63.0 °F 43.0 °F 48% 30.12 in 10.0 mi North 6.9 mph - N/A   Partly Cloudy
11:53 AM 66.0 °F 37.9 °F 36% 30.11 in 10.0 mi North 6.9 mph - N/A   Partly Cloudy
12:53 PM 66.9 °F 37.0 °F 33% 30.09 in 10.0 mi NNW 5.8 mph - N/A   Partly Cloudy
1:53 PM 69.1 °F 37.9 °F 32% 30.06 in 10.0 mi North 4.6 mph - N/A   Partly Cloudy
2:53 PM 69.1 °F 35.1 °F 29% 30.04 in 10.0 mi Calm Calm - N/A   Partly Cloudy
3:53 PM 71.1 °F 35.1 °F 27% 30.03 in 10.0 mi North 6.9 mph - N/A   Clear
4:53 PM 71.1 °F 36.0 °F 28% 30.02 in 10.0 mi NE 4.6 mph - N/A   Clear
5:53 PM 69.1 °F 44.1 °F 40% 30.02 in 10.0 mi NE 11.5 mph - N/A   Clear
6:53 PM 66.0 °F 44.1 °F 45% 30.04 in 10.0 mi NE 9.2 mph - N/A   Clear
7:53 PM 64.0 °F 45.0 °F 50% 30.04 in 10.0 mi NE 9.2 mph - N/A   Clear
8:53 PM 64.0 °F 46.0 °F 52% 30.06 in 10.0 mi ENE 6.9 mph - N/A   Clear
9:53 PM 64.0 °F 50.0 °F 60% 30.06 in 10.0 mi NE 5.8 mph - N/A   Clear
10:53 PM 63.0 °F 48.9 °F 60% 30.06 in 10.0 mi NE 8.1 mph - N/A   Clear
11:53 PM 63.0 °F 48.9 °F 60% 30.07 in 10.0 mi NE 6.9 mph - N/A   Clear